Tracking 19245 objects as of 18-Aug-2018
HD Live streaming from Space Station
objects crossing your sky now

FENGYUN 1C DEB

Track FENGYUN 1C DEB now!
10-day predictions


NORAD ID: 29927
Int'l Code: 1999-025HZ
Perigee: 773.4 km
Apogee: 821.6 km
Inclination: 99.1 °
Period: 100.7 minutes
Semi major axis: 7168 km
RCS: 0.028 m2 (small)
Launch date: May 10, 1999
Source: People's Republic of China (PRC)
Launch site: Taiyaun Space Center, China (TSC)

Note: This is SATELLITE DEBRIS
aabbcc
Your satellite tracking list
Your tracking list is empty




NASA's NSSDC Master Catalog

Two Line Element Set (TLE):
1 29927U 99025HZ  18230.49448385  .00000746  00000-0  30353-3 0  9997
2 29927  99.1353  56.3531 0033568 150.9156 263.0654 14.30406131601945
Source of the keplerian elements: AFSPC